EHI
0 0 0 0 0 0 0 0 1 1 1 0 0 0 0 0 0 0 0 0 0 0 0 0 0 0 0 0 0 0 0 0 0 0 0 0 0 0 0 0 0 0 0
0 0 0 0 0 0 0 0 0 0 0 0 0 0 0 0 0 0 0 0 0 0 0 0 0 0 0 0 0 0 0 0 0 0 0 0 0 0 0 0 0 0 0
0 0 0 0 0 0 0 0 0 0 0 0 0 0 0 0 0 0 0 0 0 0 0 0 0 0 0 0 0 0 0 0 0 0 0 0 0 0 0 0 0 0 0
0 0 0 0 0 0 0 0 0 0 0 0 0 0 0 0 0 0 0 0 0 0 0 0 0 0 0 0 0 0 0 0 0 0 0 0 0 0 0 0 0 0 0
0 0 0 0 0 0 0 0 0 0 0 0 0 0 0 0 0 0 0 0 0 0 0 0 0 0 0 0 0 0 0 0 0 0 0 0 0 0 0 0 0 0 0
0 0 0 0 0 0 0 0 0 0 0 0 0 0 0 0 0 0 0 0 0 0 0 0 0 0 0 0 0 0 0 0 0 0 0 0 0 0 0 0 0 0 0
0 0 0 0 0 0 0 0 0 0 0 0 0 0 0 0 0 0 0 0 0 0 0 0 0 0 0 0 0 0 0 0 0 0 0 0 0 0 0 0 0 0 0
0 0 0 0 0 0 0 0 0 0 0 0 0 0 0 0 0 0 0 0 0 0 0 0 0 0 0 0 0 0 0 0 0 0 0 0 0 0 0 0 0 0 0
0 0 0 0 0 0 0 0 0 0 0 0 0 0 0 0 0 0 0 0 0 0 0 0 0 0 0 0 0 0 0 0 0 0 0 0 0 0 0 0 0 0 0
0 0 0 0 0 0 0 0 0 0 0 0 0 0 0 0 0 0 0 0 0 0 0 0 0 0 0 0 0 0 0 0 0 0 0 0 0 0 0 0 0 0 0
0 0 0 0 0 0 0 0 0 0 0 0 0 0 0 0 0 0 0 0 0 0 0 0 0 0 0 0 0 0 0 0 0 0 0 0 0 0 0 0 0 0 0
0 0 0 0 0 0 0 0 0 0 0 0 0 0 0 0 0 0 0 0 0 0 0 0 0 0 0 0 0 0 0 0 0 0 0 0 0 0 0 0 0 0 0
0 0 0 0 0 0 0 0 0 0 0 0 0 0 0 0 0 0 0 0 0 0 0 0 0 0 0 0 0 0 0 0 0 0 0 0 0 0 0 0 0 0 0
0 0 0 0 0 0 0 0 0 0 0 0 0 0 0 0 0 0 0 0 0 0 0 0 0 0 0 0 0 0 0 0 0 0 0 0 0 0 0 0 0 0 0
0 0 0 0 0 0 0 0 0 0 0 0 0 0 0 0 0 0 0 0 0 0 0 0 0 0 0 0 0 0 0 0 0 0 0 0 0 0 0 0 0 0 0
0 0 0 0 0 0 0 0 0 0 0 0 0 0 0 0 0 0 0 0 0 0 0 0 0 0 0 0 0 0 0 0 0 0 0 0 0 0 0 0 0 0 0
0 0 0 0 0 0 0 0 0 0 0 0 0 0 0 0 0 0 0 0 0 0 0 0 0 0 0 0 0 0 0 0 0 0 0 0 0 0 0 0 0 0 0
0 0 0 0 0 0 0 0 0 0 0 0 0 0 0 0 0 0 0 0 0 0 0 0 0 0 0 0 0 0 0 0 0 0 0 0 0 0 0 0 0 0 0
0 0 0 0 0 0 0 0 0 0 0 0 0 0 0 0 0 0 0 0 0 0 0 0 0 0 0 0 0 0 0 0 0 0 0 0 0 0 0 0 0 0 0
0 0 0 0 0 0 0 0 0 0 0 0 0 0 0 0 0 0 0 0 0 0 0 0 0 0 0 0 0 0 0 0 0 0 0 0 0 0 0 0 0 0 0
0 0 0 0 0 0 0 0 0 0 0 0 0 0 0 0 0 0 0 0 0 0 0 0 0 0 0 0 0 0 0 0 0 0 0 0 0 0 0 0 0 0 0
0 0 0 0 0 0 0 0 0 0 0 0 0 0 0 0 0 0 0 0 0 0 0 0 0 0 0 0 0 0 0 0 0 0 0 0 0 0 0 0 0 0 0
0 0 0 0 0 0 0 0 0 0 0 0 0 0 0 0 0 0 0 0 0 0 0 0 0 0 0 0 0 0 0 0 0 0 0 0 0 0 0 0 0 0 0
0 0 0 0 0 0 0 0 0 0 0 0 0 0 0 0 0 0 0 0 0 0 0 0 0 0 0 0 0 0 0 0 0 0 0 0 0 0 0 0 0 0 0
0 0 0 0 0 0 0 0 0 0 0 0 0 0 0 0 0 0 0 0 0 0 0 0 0 0 0 0 0 0 0 0 0 0 0 0 0 0 0 0 0 0 0
0 0 0 0 0 0 0 0 0 0 0 0 0 0 0 0 0 0 0 0 0 0 0 0 0 0 0 0 0 0 0 0 0 0 0 0 0 0 0 0 0 0 0
Wind_Speed
4 5 5 4 3 2 1 1 1 2 2 1 1 2 2 2 2 2 3 4 5 5 4 4 4 3 2 3 3 3 3 2 2 3 4 4 4 4 3 3 2 2 2
4 5 5 4 3 2 1 1 1 2 2 1 1 1 1 1 1 2 3 4 4 4 4 4 3 3 3 3 3 3 2 2 2 2 3 3 3 2 3 2 2 3 2
4 4 4 4 3 2 1 1 2 2 2 2 1 1 1 1 2 2 2 3 3 4 4 5 4 4 3 2 3 3 3 2 2 1 2 2 3 3 2 2 2 2 2
3 3 4 4 3 2 2 1 1 1 1 1 1 1 1 1 2 2 2 3 3 4 4 4 4 4 3 3 3 3 3 3 2 2 2 3 2 2 3 3 2 3 3
3 3 3 4 3 3 2 1 0 0 1 1 1 1 1 1 1 2 2 2 3 3 4 4 4 4 3 3 4 4 3 3 2 2 2 3 3 3 4 5 3 3 3
3 3 3 3 3 3 2 2 1 1 0 0 1 0 1 1 2 2 2 2 2 2 4 4 3 3 3 3 3 3 4 3 3 3 2 2 2 3 3 5 4 4 3
3 3 3 3 3 3 2 2 2 1 1 0 0 1 1 1 1 2 2 2 2 2 3 4 3 3 3 3 3 3 3 3 3 3 3 3 3 3 3 4 4 5 4
3 3 3 3 3 3 3 2 2 2 1 1 1 1 1 1 1 1 2 2 2 2 3 3 3 4 4 4 3 3 3 3 3 4 4 3 3 3 3 3 4 5 4
3 3 2 3 3 3 3 3 3 2 2 1 1 1 1 1 1 1 1 2 2 2 3 3 3 4 4 4 3 3 3 3 3 3 3 3 3 3 3 3 3 4 6
2 2 2 2 2 3 3 3 3 3 2 2 1 1 1 1 1 1 2 2 2 3 3 3 3 4 4 4 3 3 3 3 3 3 3 4 3 3 3 3 4 4 5
2 2 2 3 3 3 3 3 3 3 2 2 2 1 2 1 1 1 2 2 2 3 3 3 4 4 4 4 3 4 4 4 4 4 4 5 4 3 3 3 4 4 4
2 2 3 3 3 3 3 3 3 3 3 3 2 2 2 2 1 2 2 2 2 3 3 3 3 4 4 4 4 4 4 4 5 5 5 5 4 4 4 3 4 4 4
2 2 2 3 3 4 4 4 4 3 3 3 3 2 2 2 2 2 2 2 2 3 3 3 3 4 4 4 4 4 5 5 5 5 5 5 4 5 4 4 4 4 4
2 2 2 3 3 3 3 3 3 3 3 3 3 3 3 2 2 2 2 2 2 2 3 3 3 4 4 4 4 4 5 5 5 5 4 4 4 4 5 5 5 4 5
2 2 3 3 3 3 3 3 3 3 3 3 3 3 3 2 2 2 2 2 2 3 3 3 3 3 3 3 4 5 5 4 4 4 4 4 5 6 5 5 5 4 4
3 2 2 3 3 3 3 3 3 3 4 4 4 3 2 2 2 2 2 2 2 3 3 3 3 3 3 5 7 6 4 4 4 5 4 5 5 6 8 9 9 7 6
3 3 3 3 3 3 3 3 3 3 4 4 3 3 3 3 3 3 2 2 3 3 3 3 3 3 4 6 7 7 5 4 4 4 4 4 4 6 4 6 8 8 9
3 3 3 3 3 2 2 2 3 3 4 4 4 4 3 3 3 3 3 3 3 3 3 3 3 3 4 6 7 8 4 4 4 4 4 4 4 5 5 5 5 5 6
3 3 3 3 3 3 3 2 3 3 3 4 4 4 4 4 4 4 4 3 3 3 3 3 3 3 4 6 7 7 3 3 4 4 4 5 5 7 9 6 5 6 6
2 2 2 3 3 3 2 3 3 3 4 5 4 4 4 4 4 4 4 3 3 3 3 3 3 3 3 6 7 6 2 3 4 4 4 6 7 9 10 6 5 6 6
3 3 3 3 3 3 2 3 3 4 4 3 3 3 4 4 4 3 3 2 3 3 3 3 3 3 4 6 7 7 3 3 4 4 4 4 9 11 11 9 5 7 8
3 3 3 3 3 3 3 4 4 4 3 3 3 4 3 3 3 3 3 2 2 3 3 3 3 3 3 4 6 8 7 6 4 4 3 4 10 11 11 8 8 10 8
4 3 3 3 3 3 3 5 4 3 3 3 4 3 3 3 3 3 3 3 2 2 2 2 3 3 2 3 7 8 8 9 5 4 7 9 10 10 7 9 9 7 3
4 3 3 4 4 3 4 4 3 3 3 4 4 3 3 3 3 3 3 3 3 3 3 3 3 3 3 3 3 3 4 6 6 5 7 10 9 7 7 7 5 3 2
3 3 4 5 5 4 4 3 3 3 3 4 3 3 3 3 3 3 4 4 4 4 4 4 3 3 4 5 7 5 4 3 4 5 3 3 3 3 3 4 3 2 2
4 4 4 5 5 4 4 4 3 3 4 3 3 3 3 3 3 3 3 6 5 7 8 7 5 5 7 8 8 8 9 9 8 5 3 3 3 3 4 4 4 3 3
Wind_Direction
154 138 136 126 114 103 94 73 39 21 34 29 16 4 356 346 347 352 0 359 350 348 342 330 325 324 316 311 310 306 307 307 313 305 300 281 263 259 260 268 281 281 275
158 151 144 133 128 124 102 69 56 26 27 32 2 327 329 323 323 347 2 355 348 346 338 332 326 323 317 320 318 317 310 309 319 295 294 298 293 280 268 251 250 267 276
169 154 145 137 130 125 109 56 46 20 17 25 8 356 352 334 357 356 351 344 344 344 336 330 329 326 322 310 311 306 297 294 292 277 260 274 276 310 284 271 257 260 261
154 147 147 138 136 132 114 77 47 21 2 9 4 338 336 329 324 331 331 341 349 343 337 331 330 328 324 319 312 316 302 288 285 292 282 267 273 279 295 292 291 285 268
153 152 148 145 141 133 129 133 151 316 351 3 351 329 330 314 315 327 332 339 340 339 336 336 335 332 327 324 321 319 313 298 280 276 284 283 289 271 265 281 288 288 272
146 143 140 139 140 137 138 159 194 231 276 337 340 332 310 315 323 326 324 326 328 334 336 333 331 328 324 319 311 312 314 306 295 287 280 275 268 271 266 270 281 282 278
159 154 153 151 152 153 164 187 193 218 224 232 305 308 297 299 293 305 310 318 319 323 328 333 329 325 318 312 308 303 301 299 294 288 283 281 270 267 267 270 280 281 281
157 162 168 166 172 180 184 190 200 212 205 207 241 266 271 256 265 290 301 306 306 309 313 318 321 319 315 313 309 297 289 290 286 288 284 281 282 278 270 268 277 284 278
159 164 167 170 182 190 192 195 201 205 203 203 211 245 267 268 275 286 292 290 293 302 315 316 315 312 313 311 306 294 294 294 288 286 286 283 284 280 276 272 265 265 276
148 167 177 190 197 193 198 196 194 198 200 194 209 240 257 262 268 282 290 293 296 301 300 302 304 304 305 307 308 303 297 292 287 283 282 278 279 275 272 271 272 265 264
178 188 195 196 202 201 200 201 198 193 193 198 205 220 241 249 257 264 273 283 289 293 295 300 303 303 302 304 309 305 301 293 289 286 284 280 278 277 269 267 266 266 263
187 195 212 207 209 214 211 205 196 196 199 196 201 215 224 229 246 261 274 284 291 296 297 302 306 306 306 308 309 308 308 299 293 291 285 285 286 286 278 269 266 266 263
210 215 224 224 223 221 214 206 199 197 198 192 200 213 220 223 239 256 272 283 288 295 299 302 303 304 305 308 307 306 306 301 294 292 285 282 284 282 284 282 275 272 275
234 233 241 237 234 231 218 208 202 194 195 195 202 215 222 227 236 248 261 272 279 284 289 293 294 295 297 302 308 312 306 304 300 298 293 286 281 283 285 285 282 278 278
246 247 248 247 247 240 228 216 208 196 192 199 208 218 222 223 229 244 257 268 275 282 283 287 289 293 295 309 318 311 305 305 305 303 300 296 287 287 290 290 287 281 273
250 253 261 256 254 247 231 218 212 201 193 203 212 212 212 218 226 239 249 259 265 270 274 278 288 295 302 314 316 318 310 306 304 303 306 302 295 293 294 292 290 287 281
261 255 259 265 259 251 234 218 217 203 198 205 210 207 207 218 228 236 241 250 255 260 266 273 280 286 290 304 312 317 312 303 301 299 299 301 305 308 299 296 295 294 291
270 265 254 257 262 251 243 224 207 203 206 211 213 209 207 217 224 228 236 242 247 252 257 265 272 279 287 302 312 314 307 297 296 297 293 292 298 303 305 301 297 288 288
268 259 249 250 254 247 237 222 216 213 213 220 219 213 208 213 218 228 237 240 244 252 255 261 267 273 286 298 306 312 304 300 300 303 308 305 300 305 308 305 298 295 290
278 272 266 262 253 248 227 220 224 220 226 228 225 217 211 213 219 226 231 237 243 252 262 268 265 267 277 292 300 305 299 299 300 302 302 305 309 311 311 303 296 295 294
278 269 263 258 251 240 215 227 232 234 237 234 229 221 216 218 221 221 223 234 243 252 259 267 269 267 275 289 294 298 301 291 295 301 304 306 312 312 310 307 297 290 296
273 263 259 262 258 236 218 232 240 241 235 230 230 226 220 223 222 218 226 229 232 246 257 268 279 275 279 285 291 296 298 302 293 293 300 304 310 313 314 312 303 302 305
266 259 252 264 263 242 221 234 243 234 226 226 229 227 223 221 217 214 221 225 226 236 254 259 271 281 281 283 285 291 297 302 299 291 299 306 311 314 315 312 310 308 298
262 255 251 257 263 252 237 233 235 224 216 228 232 223 220 226 224 222 219 219 220 228 241 251 261 271 274 273 286 296 298 296 297 294 297 303 306 307 308 316 316 305 294
260 244 244 252 258 258 252 239 227 215 221 232 233 228 225 226 229 229 226 229 226 224 235 240 241 255 269 271 287 299 295 295 289 300 294 294 303 311 315 316 316 311 309
259 251 249 252 256 254 256 247 228 213 215 230 232 226 224 227 228 235 254 251 250 255 254 256 258 261 270 284 288 292 295 296 297 299 293 291 292 300 308 310 312 316 313